When you browse on this site, cookies collect data to enhance your experience and personalize the content and advertising you see.
Visit our Privacy Policy to learn more. By continuing to use the site, you agree to this use of cookies and data.
  • In Hungary
  • List of Countries
  • For 7 days
  • Water Temperature
  • Satellite Maps
  • Weather Map
  • News
  • Weather Widgets
  • user-avatar
    Login

    Hourly Weather Dovechki

    Today, 20 January, Sunday

    Time Temperature Precipitation Wind Pressure Humidity
    00:00 -9°C° 0 mm 3 mps 741 mmHg 92%
    01:00 -9°C° 0 mm 3 mps 741 mmHg 91%
    02:00 -7°C° 0 mm 3 mps 741 mmHg 91%
    03:00 -7°C° 0.1 mm 3 mps 740 mmHg 90%
    04:00 -8°C° 0.1 mm 4 mps 740 mmHg 89%
    05:00 -8°C° 0.1 mm 4 mps 739 mmHg 89%
    06:00 -8°C° 0.3 mm 4 mps 738 mmHg 89%
    07:00 -8°C° 0.3 mm 5 mps 738 mmHg 89%
    08:00 -7°C° 0 mm 4 mps 737 mmHg 89%
    09:00 -5°C° 0.3 mm 4 mps 737 mmHg 88%
    10:00 -5°C° 0.3 mm 4 mps 736 mmHg 87%
    11:00 -4°C° 0.3 mm 4 mps 736 mmHg 87%
    12:00 -5°C° 0.1 mm 4 mps 736 mmHg 85%
    13:00 -5°C° 0.1 mm 4 mps 735 mmHg 83%
    14:00 -7°C° 0.1 mm 4 mps 735 mmHg 81%
    15:00 -7°C° 0.1 mm 4 mps 735 mmHg 83%
    16:00 -7°C° 0.1 mm 5 mps 735 mmHg 85%
    17:00 -7°C° 0.1 mm 5 mps 735 mmHg 86%
    18:00 -8°C° 0.2 mm 5 mps 736 mmHg 86%
    19:00 -8°C° 0.2 mm 5 mps 736 mmHg 86%
    20:00 -10°C° 0.2 mm 5 mps 736 mmHg 86%
    21:00 -11°C° 0 mm 5 mps 737 mmHg 86%
    22:00 -11°C° 0 mm 5 mps 737 mmHg 86%
    23:00 -12°C° 0 mm 5 mps 738 mmHg 86%

    Tomorrow, 21 January, Monday

    Time Temperature Precipitation Wind Pressure Humidity
    00:00 -14°C° 0 mm 4 mps 738 mmHg 88%
    01:00 -15°C° 0 mm 4 mps 739 mmHg 89%
    02:00 -17°C° 0 mm 4 mps 739 mmHg 91%
    03:00 -16°C° 0 mm 3 mps 739 mmHg 92%
    04:00 -17°C° 0 mm 3 mps 740 mmHg 92%
    05:00 -18°C° 0 mm 3 mps 740 mmHg 93%
    06:00 -18°C° 0 mm 3 mps 740 mmHg 94%
    07:00 -18°C° 0 mm 2 mps 740 mmHg 95%
    08:00 -18°C° 0 mm 2 mps 740 mmHg 96%
    09:00 -18°C° 0 mm 2 mps 741 mmHg 95%
    10:00 -17°C° 0 mm 2 mps 741 mmHg 94%
    11:00 -17°C° 0 mm 2 mps 741 mmHg 93%
    12:00 -17°C° 0 mm 2 mps 741 mmHg 93%
    13:00 -17°C° 0 mm 2 mps 742 mmHg 93%
    14:00 -17°C° 0 mm 2 mps 742 mmHg 93%
    15:00 -17°C° 0 mm 2 mps 742 mmHg 93%
    16:00 -18°C° 0 mm 2 mps 742 mmHg 94%
    17:00 -21°C° 0 mm 3 mps 743 mmHg 95%
    18:00 -21°C° 0 mm 3 mps 743 mmHg 95%
    19:00 -22°C° 0 mm 3 mps 743 mmHg 96%
    20:00 -22°C° 0 mm 3 mps 744 mmHg 96%
    21:00 -22°C° 0 mm 3 mps 744 mmHg 96%
    22:00 -20°C° 0 mm 2 mps 744 mmHg 96%
    23:00 -20°C° 0 mm 2 mps 744 mmHg 96%

    Day after tomorrow, 22 January, Tuesday

    Time Temperature Precipitation Wind Pressure Humidity
    00:00 -22°C° 0 mm 3 mps 745 mmHg 96%
    01:00 -22°C° 0 mm 3 mps 745 mmHg 96%
    02:00 -22°C° 0 mm 3 mps 745 mmHg 96%
    03:00 -22°C° 0 mm 3 mps 745 mmHg 96%
    04:00 -21°C° 0 mm 3 mps 745 mmHg 96%
    05:00 -21°C° 0 mm 3 mps 745 mmHg 96%
    06:00 -21°C° 0 mm 3 mps 746 mmHg 96%
    07:00 -21°C° 0 mm 3 mps 746 mmHg 96%
    08:00 -21°C° 0 mm 3 mps 746 mmHg 96%
    09:00 -19°C° 0 mm 3 mps 747 mmHg 95%
    10:00 -19°C° 0 mm 3 mps 747 mmHg 95%
    11:00 -18°C° 0 mm 3 mps 747 mmHg 94%
    12:00 -18°C° 0 mm 3 mps 747 mmHg 94%
    13:00 -17°C° 0 mm 2 mps 747 mmHg 94%
    14:00 -17°C° 0 mm 2 mps 747 mmHg 94%
    15:00 -18°C° 0 mm 2 mps 747 mmHg 95%
    16:00 -19°C° 0 mm 2 mps 747 mmHg 96%
    17:00 -19°C° 0 mm 2 mps 747 mmHg 97%
    18:00 -20°C° 0 mm 2 mps 748 mmHg 97%
    19:00 -20°C° 0 mm 2 mps 748 mmHg 97%
    20:00 -20°C° 0 mm 2 mps 748 mmHg 98%
    21:00 -21°C° 0 mm 2 mps 748 mmHg 98%
    22:00 -21°C° 0 mm 2 mps 748 mmHg 98%
    23:00 -21°C° 0 mm 2 mps 748 mmHg 98%

    23 January, Wednesday

    Time Temperature Precipitation Wind Pressure Humidity
    00:00 -21°C° 0 mm 2 mps 748 mmHg 97%
    01:00 -21°C° 0 mm 2 mps 748 mmHg 97%
    02:00 -23°C° 0 mm 2 mps 748 mmHg 97%
    03:00 -21°C° 0 mm 2 mps 748 mmHg 97%
    04:00 -21°C° 0 mm 2 mps 747 mmHg 98%
    05:00 -21°C° 0 mm 2 mps 747 mmHg 98%
    06:00 -20°C° 0 mm 2 mps 747 mmHg 98%
    07:00 -18°C° 0 mm 2 mps 747 mmHg 97%
    08:00 -16°C° 0 mm 2 mps 747 mmHg 97%
    09:00 -15°C° 0 mm 2 mps 747 mmHg 96%
    10:00 -14°C° 0 mm 3 mps 747 mmHg 95%
    11:00 -13°C° 0 mm 3 mps 747 mmHg 93%
    12:00 -12°C° 0 mm 3 mps 746 mmHg 93%
    13:00 -10°C° 0 mm 3 mps 746 mmHg 92%
    14:00 -9°C° 0 mm 3 mps 746 mmHg 91%
    15:00 -10°C° 0 mm 4 mps 746 mmHg 91%
    16:00 -10°C° 0 mm 4 mps 746 mmHg 90%
    17:00 -9°C° 0 mm 4 mps 746 mmHg 90%
    18:00 -9°C° 0 mm 4 mps 746 mmHg 90%
    19:00 -10°C° 0 mm 4 mps 746 mmHg 91%
    20:00 -10°C° 0 mm 4 mps 746 mmHg 91%
    21:00 -12°C° 0 mm 4 mps 746 mmHg 91%
    22:00 -14°C° 0 mm 4 mps 746 mmHg 92%
    23:00 -16°C° 0 mm 4 mps 746 mmHg 92%

    24 January, Thursday

    Time Temperature Precipitation Wind Pressure Humidity
    00:00 -16°C° 0 mm 4 mps 746 mmHg 93%
    01:00 -16°C° 0 mm 4 mps 747 mmHg 93%
    02:00 -16°C° 0 mm 4 mps 747 mmHg 93%
    03:00 -15°C° 0 mm 3 mps 747 mmHg 93%
    04:00 -15°C° 0 mm 3 mps 747 mmHg 93%
    05:00 -15°C° 0 mm 3 mps 747 mmHg 92%
    06:00 -15°C° 0 mm 3 mps 747 mmHg 93%
    07:00 -15°C° 0 mm 3 mps 747 mmHg 93%
    08:00 -16°C° 0 mm 3 mps 747 mmHg 94%
    09:00 -14°C° 0 mm 2 mps 748 mmHg 94%
    10:00 -14°C° 0 mm 2 mps 748 mmHg 94%
    11:00 -13°C° 0 mm 2 mps 748 mmHg 94%
    12:00 -13°C° 0 mm 2 mps 748 mmHg 94%
    13:00 -10°C° 0 mm 1 mps 749 mmHg 94%
    14:00 -10°C° 0 mm 1 mps 749 mmHg 94%
    15:00 -11°C° 0 mm 1 mps 749 mmHg 95%
    16:00 -12°C° 0 mm 0 mps 749 mmHg 96%
    17:00 -12°C° 0 mm 0 mps 749 mmHg 97%
    18:00 -12°C° 0 mm 1 mps 750 mmHg 97%
    19:00 -13°C° 0 mm 1 mps 750 mmHg 97%
    20:00 -13°C° 0 mm 1 mps 750 mmHg 97%
    21:00 -13°C° 0 mm 1 mps 750 mmHg 97%
    22:00 -16°C° 0 mm 2 mps 751 mmHg 97%
    23:00 -17°C° 0 mm 2 mps 751 mmHg 97%

    25 January, Friday

    Time Temperature Precipitation Wind Pressure Humidity
    00:00 -17°C° 0 mm 2 mps 751 mmHg 96%
    01:00 -18°C° 0 mm 2 mps 751 mmHg 95%
    02:00 -18°C° 0 mm 2 mps 751 mmHg 94%
    03:00 -18°C° 0 mm 2 mps 751 mmHg 94%
    04:00 -19°C° 0 mm 2 mps 751 mmHg 94%
    05:00 -19°C° 0 mm 2 mps 751 mmHg 93%
    06:00 -19°C° 0 mm 2 mps 752 mmHg 93%
    07:00 -19°C° 0 mm 2 mps 752 mmHg 94%
    08:00 -20°C° 0 mm 2 mps 752 mmHg 94%
    09:00 -19°C° 0 mm 2 mps 752 mmHg 93%
    10:00 -19°C° 0 mm 2 mps 752 mmHg 92%
    11:00 -19°C° 0 mm 3 mps 752 mmHg 91%
    12:00 -19°C° 0 mm 3 mps 752 mmHg 90%
    13:00 -18°C° 0 mm 3 mps 752 mmHg 90%
    14:00 -18°C° 0 mm 3 mps 752 mmHg 90%
    15:00 -18°C° 0.1 mm 3 mps 752 mmHg 90%
    16:00 -19°C° 0.1 mm 3 mps 752 mmHg 91%
    17:00 -19°C° 0.1 mm 3 mps 752 mmHg 92%
    18:00 -19°C° 0.1 mm 3 mps 752 mmHg 92%
    19:00 -19°C° 0.1 mm 3 mps 752 mmHg 92%
    20:00 -19°C° 0.1 mm 3 mps 752 mmHg 92%
    21:00 -19°C° 0.2 mm 3 mps 751 mmHg 92%
    22:00 -18°C° 0.2 mm 3 mps 751 mmHg 93%
    23:00 -18°C° 0.2 mm 3 mps 751 mmHg 93%
    Show more